Terminal Aerodrome Forecast
Issued by NWS

Home | Current Version | Previous Version | Text Only | Print | Product List | Glossary On
Versions: 1 2 3 4 5 6 7 8 9 10 11 12
000
FTUS43 KJKL 211100
TAFSME
TAF
KSME 211132Z 2112/2212 VRB04KT P6SM SCT250
     FM220900 18004KT P6SM SCT080 BKN150=

USA.gov is the U.S. government's official web portal to all federal, state and local government web resources and services.